Weather History for KMOP - February, 2013

Change the Weather History Date:

Tuesday, February 19, 2013

  Actual Average (KAMN) Record (KAMN)
Temperature  
Mean Temperature 29 °F -  
Max Temperature 41 °F 33 °F 52 °F (1954)
Min Temperature 17 °F 18 °F -17 °F (2015)
Degree Days  
Heating Degree Days 36    
Moisture  
Dew Point 25 °F    
Average Humidity 83    
Maximum Humidity 93    
Minimum Humidity 67    
Precipitation  
Precipitation 0.07 in - - ()
Sea Level Pressure  
Sea Level Pressure 29.55 in    
Wind  
Wind Speed 14 mph (WSW)    
Max Wind Speed 21 mph    
Max Gust Speed 31 mph    
Visibility 7 miles    
Events Rain , Snow    
Averages and records for this station are not official NWS values.
T = Trace of Precipitation, MM = Missing Value Source: NWS Daily Summary

Daily Weather History Graph

Daily Weather History Graph

Search for Another Location

Airport or City:

Trip Planner

Search our weather history database for the weather conditions in past years. The results will help you decide how hot, cold, wet, or windy it might be!

Date:

Astronomy

Feb. 19, 2013 Rise Set
Actual Time 7:31 AM EST 6:15 PM EST
Civil Twilight 7:01 AM EST 6:44 PM EST
Nautical Twilight 6:28 AM EST 7:17 PM EST
Astronomical Twilight 5:55 AM EST 7:50 PM EST
Moon 12:40 PM EST (2/19) 3:08 AM EST (2/19)
Length of Visible Light 11h 42m
Length of Day
10h 43m
Waxing Gibbous, 67% of the Moon is Illuminated
Feb 19
Waxing Gibbous
Feb 25
Full
Mar 4
Last Quarter
Mar 11
New
Mar 19
First Quarter

Hourly Weather History & Observations

Time (EST) Temp. Windchill Dew Point Humidity Pressure Visibility Wind Dir Wind Speed Gust Speed Precip Events Conditions
12:15 AM 41.2 °F 35.0 °F 38.1 °F 89% 29.45 in 10.0 mi SSE 10.4 mph - N/A   Drizzle
12:34 AM 41.2 °F 34.5 °F 38.3 °F 89% 29.43 in 7.0 mi SSE 11.5 mph - 0.01 in Rain Light Rain
12:55 AM 41.0 °F 33.9 °F 38.3 °F 90% 29.42 in 10.0 mi SSE 12.7 mph 18.4 mph 0.02 in Rain Light Rain
1:15 AM 41.0 °F 34.7 °F 38.5 °F 91% 29.40 in 7.0 mi SSE 10.4 mph 18.4 mph 0.01 in Rain Light Rain
1:34 AM 41.0 °F 34.3 °F 38.7 °F 91% 29.38 in 10.0 mi SSE 11.5 mph 17.3 mph 0.01 in Rain Rain
1:55 AM 41.0 °F 33.9 °F 38.8 °F 92% 29.36 in 10.0 mi SSE 12.7 mph 17.3 mph 0.02 in   Light Drizzle
2:15 AM 41.0 °F 33.1 °F 38.7 °F 91% 29.35 in 10.0 mi SSE 15.0 mph 19.6 mph N/A Rain Light Rain
2:34 AM 41.0 °F 34.7 °F 38.7 °F 91% 29.33 in 10.0 mi SSE 10.4 mph 17.3 mph 0.01 in Rain Rain
2:55 AM 40.6 °F 33.8 °F 38.7 °F 93% 29.31 in 10.0 mi SSE 11.5 mph - 0.01 in   Light Drizzle
3:15 AM 41.0 °F 35.8 °F 38.8 °F 92% 29.31 in 7.0 mi South 8.1 mph 16.1 mph N/A   Drizzle
3:34 AM 41.0 °F 35.2 °F 39.2 °F 93% 29.30 in 5.0 mi South 9.2 mph - 0.01 in Rain Light Rain
3:55 AM 40.6 °F 32.7 °F 37.8 °F 89% 29.30 in 10.0 mi SSW 15.0 mph 25.3 mph 0.02 in Rain Light Rain
4:15 AM 38.7 °F 29.8 °F 35.6 °F 89% 29.32 in 10.0 mi SW 16.1 mph 26.5 mph N/A   Light Drizzle
4:34 AM 36.5 °F 26.0 °F 33.8 °F 90% 29.33 in 10.0 mi WSW 19.6 mph 31.1 mph N/A   Overcast
4:55 AM 35.8 °F 26.9 °F 32.5 °F 88% 29.35 in 10.0 mi WSW 13.8 mph 25.3 mph N/A   Overcast
5:15 AM 35.6 °F 25.5 °F 32.0 °F 87% 29.35 in 10.0 mi WSW 17.3 mph 21.9 mph N/A   Overcast
5:34 AM 35.1 °F 23.8 °F 32.0 °F 89% 29.37 in 10.0 mi WSW 20.7 mph 29.9 mph N/A   Overcast
5:55 AM 34.7 °F 24.3 °F 32.0 °F 90% 29.38 in 10.0 mi WSW 17.3 mph 27.6 mph N/A   Overcast
6:15 AM 34.5 °F 23.8 °F 31.5 °F 89% 29.38 in 10.0 mi WSW 18.4 mph 27.6 mph N/A   Overcast
6:34 AM 34.3 °F 23.2 °F 31.1 °F 88% 29.39 in 10.0 mi WSW 19.6 mph 26.5 mph N/A Snow Light Snow
6:55 AM 33.6 °F 24.1 °F 30.2 °F 87% 29.41 in 10.0 mi WSW 13.8 mph - N/A   Overcast
7:15 AM 32.4 °F 20.3 °F 28.4 °F 85% 29.41 in 10.0 mi WSW 20.7 mph 29.9 mph N/A   Overcast
7:34 AM 32.0 °F 20.5 °F 28.4 °F 87% 29.42 in 10.0 mi WSW 18.4 mph 29.9 mph N/A   Overcast
7:55 AM 31.6 °F 19.3 °F 27.7 °F 85% 29.44 in 10.0 mi WSW 20.7 mph 31.1 mph N/A   Overcast
8:15 AM 31.1 °F 19.3 °F 27.1 °F 85% 29.45 in 10.0 mi WSW 18.4 mph 27.6 mph N/A   Overcast
8:35 AM 30.9 °F 20.7 °F 27.1 °F 86% 29.46 in 10.0 mi SW 13.8 mph 25.3 mph N/A   Overcast
8:55 AM 30.6 °F 18.6 °F 26.4 °F 85% 29.47 in 5.0 mi SW 18.4 mph 23.0 mph N/A Snow Light Snow
9:14 AM 30.2 °F 18.9 °F 25.3 °F 82% 29.48 in 10.0 mi SW 16.1 mph 26.5 mph N/A Snow Light Snow
9:35 AM 29.7 °F 17.8 °F 24.8 °F 82% 29.48 in 10.0 mi WSW 17.3 mph 20.7 mph N/A Snow Light Snow
9:55 AM 29.3 °F 17.3 °F 24.3 °F 81% 29.49 in 7.0 mi WSW 17.3 mph 27.6 mph N/A Snow Light Snow
10:14 AM 29.1 °F 19.4 °F 24.4 °F 83% 29.50 in 5.0 mi SW 11.5 mph - N/A Snow Light Snow
10:35 AM 28.4 °F 16.6 °F 23.7 °F 83% 29.51 in 3.0 mi SW 16.1 mph 27.6 mph N/A Snow Light Snow
10:55 AM 28.4 °F 17.0 °F 23.2 °F 81% 29.51 in 7.0 mi SW 15.0 mph 23.0 mph N/A Snow Light Snow
11:14 AM 28.2 °F 15.5 °F 23.0 °F 81% 29.51 in 3.0 mi SW 18.4 mph 24.2 mph N/A Snow Light Snow
11:35 AM 28.2 °F 14.8 °F 23.0 °F 81% 29.52 in 3.0 mi WSW 20.7 mph 25.3 mph N/A Snow Light Snow
11:55 AM 28.2 °F 15.2 °F 22.6 °F 80% 29.52 in 7.0 mi WSW 19.6 mph 26.5 mph N/A Snow Light Snow
12:14 PM 28.0 °F 15.7 °F 22.8 °F 81% 29.52 in 4.0 mi SW 17.3 mph 26.5 mph N/A Snow Light Snow
12:35 PM 28.2 °F 14.8 °F 22.6 °F 80% 29.52 in 4.0 mi WSW 20.7 mph 27.6 mph N/A Snow Light Snow
12:55 PM 28.2 °F 15.9 °F 22.8 °F 80% 29.53 in 7.0 mi WSW 17.3 mph 23.0 mph N/A Snow Light Snow
1:14 PM 27.9 °F 15.1 °F 22.3 °F 80% 29.53 in 4.0 mi WSW 18.4 mph 25.3 mph N/A Snow Light Snow
1:35 PM 28.4 °F 16.6 °F 22.8 °F 80% 29.54 in 7.0 mi WSW 16.1 mph - N/A Snow Light Snow
1:55 PM 28.4 °F 15.8 °F 21.7 °F 76% 29.55 in 7.0 mi West 18.4 mph 24.2 mph N/A Snow Light Snow
2:14 PM 27.9 °F 15.9 °F 22.1 °F 79% 29.56 in 3.0 mi West 16.1 mph 26.5 mph N/A Snow Light Snow
2:35 PM 27.1 °F 16.4 °F 22.3 °F 82% 29.58 in 1.5 mi West 12.7 mph 24.2 mph N/A Snow Light Snow
2:55 PM 26.2 °F 15.2 °F 21.6 °F 82% 29.59 in 1.0 mi West 12.7 mph - N/A Snow Light Snow
3:14 PM 26.6 °F 16.2 °F 20.8 °F 79% 29.60 in 2.0 mi West 11.5 mph 21.9 mph N/A Snow Light Snow
3:35 PM 25.9 °F 14.8 °F 21.2 °F 82% 29.62 in 1.8 mi WNW 12.7 mph 18.4 mph N/A Snow Light Snow
3:55 PM 24.6 °F 13.2 °F 21.0 °F 86% 29.64 in 1.0 mi West 12.7 mph 19.6 mph N/A Snow Light Snow
4:14 PM 23.4 °F 11.1 °F 19.8 °F 86% 29.65 in 0.8 mi West 13.8 mph 23.0 mph N/A Snow Light Snow
4:35 PM 23.2 °F 8.6 °F 19.0 °F 84% 29.67 in 1.0 mi West 19.6 mph 25.3 mph N/A Snow Light Snow
4:55 PM 22.6 °F 9.2 °F 18.1 °F 83% 29.69 in 1.2 mi West 16.1 mph 24.2 mph N/A Snow Light Snow
5:15 PM 22.8 °F 8.5 °F 16.5 °F 77% 29.71 in 2.5 mi West 18.4 mph 25.3 mph N/A Snow Light Snow
5:35 PM 22.8 °F 9.9 °F 15.6 °F 74% 29.71 in 10.0 mi West 15.0 mph 21.9 mph N/A Snow Light Snow
5:55 PM 22.3 °F 7.4 °F 15.1 °F 74% 29.73 in 5.0 mi West 19.6 mph 28.8 mph N/A Snow Light Snow
6:15 PM 22.1 °F 8.5 °F 15.3 °F 75% 29.75 in 7.0 mi West 16.1 mph 21.9 mph N/A Snow Light Snow
7:35 PM 20.7 °F 5.7 °F 13.8 °F 75% 29.79 in 7.0 mi West 18.4 mph 26.5 mph N/A   Overcast
7:54 PM 20.3 °F 6.6 °F 13.6 °F 75% 29.80 in 7.0 mi West 15.0 mph 23.0 mph N/A   Overcast
8:15 PM 20.1 °F 6.4 °F 13.6 °F 76% 29.81 in 7.0 mi West 15.0 mph 24.2 mph N/A Snow Light Snow
8:35 PM 19.8 °F 5.9 °F 14.0 °F 78% 29.82 in 5.0 mi West 15.0 mph 20.7 mph N/A Snow Light Snow
8:54 PM 19.4 °F 6.6 °F 14.0 °F 80% 29.83 in 2.5 mi West 12.7 mph 20.7 mph N/A Snow Light Snow
9:15 PM 19.0 °F 6.1 °F 14.5 °F 83% 29.83 in 2.5 mi West 12.7 mph 18.4 mph N/A Snow Light Snow
9:34 PM 18.9 °F 4.8 °F 14.7 °F 84% 29.84 in 4.0 mi WSW 15.0 mph 19.6 mph N/A Snow Light Snow
9:55 PM 18.5 °F 6.1 °F 14.7 °F 85% 29.85 in 5.0 mi West 11.5 mph - N/A Snow Light Snow
10:15 PM 18.5 °F 5.5 °F 14.5 °F 85% 29.85 in 10.0 mi West 12.7 mph 17.3 mph N/A Snow Light Snow
10:34 PM 19.0 °F 4.5 °F 11.5 °F 72% 29.86 in 10.0 mi West 16.1 mph 19.6 mph N/A   Scattered Clouds
10:55 PM 18.9 °F 7.2 °F 10.4 °F 70% 29.86 in 10.0 mi WNW 10.4 mph 18.4 mph N/A   Clear
11:15 PM 18.5 °F 3.8 °F 10.2 °F 70% 29.87 in 10.0 mi WNW 16.1 mph 20.7 mph N/A   Mostly Cloudy
11:34 PM 17.6 °F 2.2 °F 9.3 °F 70% 29.87 in 10.0 mi West 17.3 mph 23.0 mph N/A   Mostly Cloudy
11:55 PM 17.4 °F 4.1 °F 8.2 °F 67% 29.87 in 10.0 mi West 12.7 mph 19.6 mph N/A   Scattered Clouds